Regional Weather Roundup
Issued by NWS Newport/Morehead, NC

Current Version | Previous Version | Text Only | Print | Product List | Glossary On
Versions: 1 2 3 4 5 6 7 8 9 10 11 12 13 14 15 16 17 18 19 20 21 22 23 24 25 26 27 28 29 30 31 32 33 34 35 36 37 38 39 40 41 42 43 44 45 46 47 48 49 50
000
ASUS42 KMHX 251113
RWRMHX
WEATHER ROUNDUP FOR EASTERN NORTH CAROLINA
NATIONAL WEATHER SERVICE NEWPORT/MOREHEAD CITY NC
700 AM EDT MON SEP 25 2017

NOTE: "FAIR" INDICATES FEW OR NO CLOUDS BELOW 12,000 FEET
WITH NO SIGNIFICANT WEATHER AND/OR OBSTRUCTIONS TO VISIBILITY

NCZ015>017-031-032-045>047-102-103-251200-
NORTH COAST

CITY           SKY/WX    TMP DP  RH WIND       PRES   REMARKS
EDENTON        PTCLDY    68  66  94 CALM      29.97R
ELIZABETH CITY MOCLDY    72  70  93 NE13      29.97R
KITTY HAWK     CLOUDY    70  67  89 NE10      29.94S
MANTEO         CLOUDY    72  68  89 NE16      29.95R

$$

NCZ045>047-081-094-103-104-251200-
CENTRAL COAST

CITY           SKY/WX    TMP DP  RH WIND       PRES   REMARKS
FRISCO         MOCLDY    73  72  96 NE10G20   29.90S

$$

NCZ095-097-098-100-101-251200-
SOUTHERN COAST

CITY           SKY/WX    TMP DP  RH WIND       PRES   REMARKS
BEAUFORT       CLOUDY    73  71  93 N13       29.89S
CEDAR ISLAND   NOT AVBL
JACKSONVILLE   CLOUDY    71  70  96 N8        29.91R
PINEY ISLAND     N/A    N/A N/A N/A N18       29.90S
WILMINGTON     CLOUDY    71  68  90 NE10      29.91R


$$

NCZ011>013-027>030-043-044-078>080-089-090>093-098-251200-
COASTAL PLAIN

CITY           SKY/WX    TMP DP  RH WIND       PRES   REMARKS
AHOSKIE        CLOUDY    63  63 100 N5        29.99S
CLINTON        CLEAR     66  65  97 CALM      29.95R
ELIZABETHTOWN  NOT AVBL
GOLDSBORO      CLEAR     66  66 100 NE9       29.94R
GREENVILLE     CLOUDY    64  64 100 N3        29.98S
HAVELOCK       CLOUDY    73  70  90 N10       29.92S
KENANSVILLE    CLOUDY    66  64  94 NE5       29.94S
KINSTON        MOCLDY    66  64  94 N7        29.96S
NEW BERN       CLOUDY    71  69  93 NE10      29.94S
RICHLANDS      CLOUDY    69  67  93 N8        29.93S
ROCKY MOUNT    PTCLDY    64  64 100 NE7       29.98F
WASHINGTON     CLOUDY    68  66  94 N5        29.95S
WHITEVILLE     CLOUDY    68  64  89 NE6       29.93R

$$

AMZ130-135-150-152-154-156-158-170-250-252-270-ANZ085-086-088-633-658-670-251200-
MARINE OBSERVATIONS

STATION/POSITION TIME  TEMP    WIND        PRES    WAVE   SWELL
                       AIR SEA DIR/SP/G            HT/PER HT/PER
                 (UTC) (F)     (DEG/KT/KT) (MB)    (FT/S) (FT/S)
CHESAPEAKE LIGHT NOT AVBL
64 E VA BEACH    1050   71 70   50/ 14/ 17 1014.9   11/15  10/15
DUCK             1042   73 76   50/ 19/ 21 1014.1
2 E DUCK         1100      75                N/A     6/14   5/14
OREGON INLET     1042   72 76   30/ 16/ 20 1013.3
13E OREGON INLT  1048      75                N/A     9/15   8/15
HATTERAS CG      1042   73 77   40/ 14/ 19 1012.4
DIAMOND BUOY     1050   74 76   30/ 21/ 25 1011.1   10/13   8/13
CAPE LOOKOUT     1100   74      20/ 17/ 24 1011.7
BEAUFORT LAB     1042   73 76   20/ 13/ 18 1011.6
30 SE NEW RVR IN 1008   76      40/ 19/ 27 1010.9
30 SE NEW RVR IN NOT AVBL
27 SE WRIGHTSVLE 1008   76 80   80/ 21/ 27 1010.8
5 SE WRIGHTSVLE  NOT AVBL
225 S CAPE HAT   1050   79 81   20/ 33/ 39  996.8   23/10
41 SE CHARLESTON 1050   78 80   20/ 16/ 19 1011.2   10/14   8/14

$$



USA.gov is the U.S. government's official web portal to all federal, state and local government web resources and services.